Temperature
30 32 32 32 32 32 32 32 31 31 31 31 32 32 32 30 29 28 27 26 25 24 23 22 22 21 21 20 20 19 19 18 18 18 18 17 17 17 17 17 16 17 17 16
29 31 32 32 32 32 32 32 32 32 32 33 32 32 31 30 29 28 27 26 25 24 23 22 21 21 20 20 19 19 19 18 18 18 17 17 17 17 17 16 16 16 16 16
28 30 30 30 31 32 32 33 33 32 32 32 32 31 31 30 29 28 27 26 25 24 22 22 21 21 20 20 19 19 19 18 18 18 17 17 17 17 16 16 16 16 16 16
27 28 27 30 33 33 33 33 33 33 33 32 31 30 30 29 29 28 27 26 25 24 22 21 21 20 20 19 19 19 18 18 18 17 17 17 17 17 16 16 16 16 16 15
27 27 28 30 32 32 32 31 33 32 32 32 31 30 29 29 28 27 27 26 25 23 22 21 20 20 20 19 19 18 18 18 17 17 17 17 17 16 16 16 15 15 15 15
26 26 27 29 31 32 31 30 31 31 31 31 31 30 29 27 27 26 26 25 24 23 22 21 20 20 19 19 19 18 18 18 17 17 17 17 16 16 16 15 15 15 15 15
25 25 27 29 30 30 28 28 29 29 29 29 29 28 27 26 25 25 24 24 23 22 21 20 20 19 19 18 18 18 17 17 17 17 16 16 16 16 15 15 15 14 14 14
25 25 26 28 28 27 26 26 27 27 27 26 26 26 25 25 24 24 23 22 22 21 20 20 19 19 18 18 18 18 17 17 16 16 16 16 16 15 15 15 14 14 14 14
26 26 25 25 25 25 25 25 25 26 25 25 25 24 24 23 23 22 22 21 20 20 19 19 19 18 18 18 17 17 17 16 16 16 15 15 15 15 14 14 14 14 13 13
25 25 25 24 24 24 24 24 24 25 25 25 24 24 23 22 21 21 20 20 19 19 18 18 18 17 17 17 17 16 16 16 15 15 15 15 14 14 14 14 13 13 13 13
23 24 24 23 23 23 23 23 23 23 23 23 23 23 22 21 20 20 19 19 18 18 17 17 17 17 17 17 16 16 16 15 15 15 14 14 14 13 13 13 13 13 13 12
22 22 22 21 21 22 22 22 22 22 21 21 21 21 20 20 19 18 18 18 17 17 17 17 16 16 16 16 16 16 15 15 14 14 14 13 13 13 13 13 13 12 12 12
21 21 21 21 20 20 21 21 21 20 20 20 20 20 19 18 18 17 17 17 16 16 16 16 16 16 16 15 15 15 15 14 14 13 13 13 13 13 12 12 12 12 12 11
19 20 20 20 20 19 20 20 20 19 19 19 19 18 18 17 17 17 16 16 16 16 15 15 15 15 15 15 15 14 14 13 13 13 13 12 12 12 12 12 11 11 11 11
19 19 19 19 19 18 18 19 19 18 18 18 17 17 17 17 16 16 15 15 15 15 15 15 15 14 14 14 14 13 13 13 13 13 12 12 12 11 11 11 11 11 10 10
18 18 18 18 18 18 18 18 18 18 17 17 16 16 16 16 15 15 15 14 14 14 14 14 14 14 14 14 13 13 13 12 12 12 12 12 11 11 11 11 10 10 10 10
17 17 17 17 17 17 17 17 17 17 17 16 16 15 15 15 14 14 14 14 14 13 13 13 13 13 13 13 13 12 12 12 12 11 11 11 11 11 11 10 10 10 10 9
16 16 16 16 16 16 16 16 16 16 16 16 15 15 14 14 14 14 13 13 13 13 12 12 12 12 12 12 12 12 12 11 11 11 11 11 11 11 10 10 10 9 9 9
16 16 16 16 16 16 15 15 15 15 15 15 14 14 14 14 14 13 13 13 12 12 12 12 12 12 12 12 11 11 11 11 11 11 11 11 10 10 10 10 9 9 9 9
15 15 15 15 15 15 15 14 14 14 14 14 14 13 13 13 13 13 12 12 12 12 11 11 11 11 11 11 11 11 11 11 10 10 10 10 10 10 10 9 9 9 9 9
14 14 14 14 14 14 14 14 14 14 13 13 13 13 13 12 12 12 12 11 11 11 11 11 11 11 11 11 11 11 11 11 10 10 10 10 10 9 9 9 9 9 9 9
13 13 13 13 13 13 13 13 13 13 13 13 12 12 12 12 12 11 11 11 11 11 11 11 11 11 11 11 11 11 11 11 10 10 10 10 9 9 9 9 9 9 9 9
12 12 12 12 12 12 12 12 12 12 12 12 12 12 12 12 11 11 11 11 11 11 10 10 11 11 10 10 10 11 10 10 10 10 10 10 10 9 9 9 9 9 9 9
11 11 11 11 11 11 11 11 11 12 12 11 11 11 11 11 11 11 11 11 10 10 10 10 10 10 10 10 10 10 10 10 10 10 10 10 10 9 9 9 9 9 9 9
11 11 11 11 11 11 11 11 11 11 11 11 11 11 11 11 11 10 10 10 10 10 10 10 10 10 10 10 10 10 10 10 10 10 10 9 9 9 9 9 9 9 9 9
10 10 10 11 11 11 11 11 11 11 11 11 10 10 10 10 10 10 10 10 9 9 9 9 9 10 10 10 10 10 10 10 9 9 9 9 9 9 9 9 9 9 9 8
10 10 10 10 10 10 11 10 10 10 10 10 10 10 10 10 10 10 10 9 9 9 9 9 9 9 9 9 9 9 9 9 9 9 9 9 9 9 9 9 9 9 9 8
Wind_Speed
18 19 15 14 17 18 17 16 14 11 8 6 4 6 9 10 11 11 12 11 11 11 10 9 9 8 7 7 7 7 7 6 6 5 5 5 4 3 2 2 2 2 2 2
17 19 19 17 14 15 17 16 16 14 11 2 3 4 6 8 11 11 11 12 12 12 12 11 10 9 8 7 7 7 6 6 6 6 6 5 4 3 3 3 2 3 3 3
15 17 18 20 16 15 14 13 13 12 9 4 4 4 6 6 9 10 11 12 12 13 11 10 10 9 9 8 7 7 6 6 6 6 5 5 4 4 3 3 3 3 3 4
14 15 19 15 15 15 15 14 11 10 6 3 4 5 5 4 6 9 10 12 12 13 12 11 10 10 9 9 7 7 6 6 6 5 5 5 4 4 4 3 3 3 3 4
12 16 17 16 14 12 11 10 8 7 5 3 4 6 4 5 5 7 8 9 10 11 12 11 10 9 9 8 8 7 7 6 5 5 5 5 5 4 4 4 4 3 3 4
12 15 15 10 9 9 10 9 4 4 3 4 5 6 4 6 7 7 7 9 10 11 11 10 9 9 9 8 8 7 6 6 5 5 5 5 5 5 4 4 4 4 4 4
17 17 13 9 7 5 7 2 6 6 6 4 1 2 7 9 8 8 8 9 10 10 10 9 9 8 7 7 6 6 6 6 5 5 5 5 5 4 4 4 4 4 5 5
16 18 13 7 5 3 4 7 7 8 8 7 9 10 9 9 8 8 9 9 10 9 9 8 8 8 7 6 6 6 6 6 5 5 4 5 5 5 4 4 4 4 5 5
10 8 2 4 4 5 6 5 4 4 4 5 7 8 8 8 8 8 8 8 9 10 9 8 7 6 7 6 6 6 6 6 6 5 4 5 5 5 4 3 3 4 4 4
3 1 3 4 4 4 4 4 5 5 4 4 5 6 7 7 7 7 7 8 8 9 8 7 6 5 6 6 6 6 6 6 6 5 5 5 3 2 3 2 2 2 3 4
4 3 2 4 6 7 5 4 5 5 5 4 4 5 6 6 7 6 6 6 7 7 7 7 6 6 6 5 6 6 6 6 5 5 6 5 5 5 4 4 2 1 2 3
4 4 4 4 6 6 5 5 5 5 5 5 5 5 6 6 6 6 6 6 6 6 7 6 6 6 5 4 5 6 5 5 4 5 5 6 6 6 12 9 10 10 8 6
5 5 4 4 6 6 5 4 4 4 4 4 4 4 5 6 6 7 6 6 6 6 6 6 6 5 4 4 4 5 5 4 4 5 5 5 5 5 5 6 10 12 11 10
6 5 6 4 5 6 6 4 3 3 3 3 3 4 5 6 6 6 6 5 6 6 6 5 6 5 4 4 4 4 4 4 4 4 5 5 4 4 5 5 4 4 6 9
6 5 6 4 4 5 5 3 2 0 1 2 3 4 6 7 6 6 5 5 6 6 6 5 5 5 4 5 4 4 4 3 3 4 4 4 4 4 5 5 5 5 5 5
6 6 5 5 5 7 6 4 3 2 2 2 3 4 5 6 6 6 5 5 5 5 5 5 5 5 4 5 4 4 3 4 3 4 4 4 4 4 5 5 5 6 6 6
7 6 6 7 7 6 4 5 4 4 3 3 3 4 6 6 6 6 5 4 5 5 4 4 5 5 5 5 4 4 4 5 5 4 4 4 4 4 4 5 5 5 5 6
8 8 8 8 8 6 4 4 3 2 3 3 4 4 5 6 6 6 5 5 5 5 4 5 5 5 5 5 4 4 4 4 4 4 3 3 3 3 4 5 5 5 5 6
9 8 8 8 7 7 5 4 3 2 2 4 5 5 5 5 6 6 6 5 5 5 4 5 5 6 5 5 4 4 4 5 5 3 4 4 4 4 4 4 4 4 5 6
8 8 7 7 7 6 5 4 3 3 2 3 3 4 5 5 6 6 6 4 3 3 5 6 6 5 5 4 2 3 4 5 5 4 4 4 4 3 4 4 4 4 4 5
6 6 6 6 5 4 4 3 3 3 3 4 4 4 5 5 6 6 6 5 4 5 5 6 5 4 4 3 3 3 4 4 4 4 4 4 4 3 3 3 3 4 4 5
3 3 3 2 2 2 1 2 3 4 5 4 5 4 5 6 6 5 5 4 6 6 5 5 4 5 3 2 2 3 4 4 4 4 4 4 4 4 4 4 4 4 4 4
2 2 1 1 0 1 1 2 2 3 4 4 4 4 4 4 4 5 4 5 6 5 4 5 6 6 3 1 1 3 4 3 3 3 3 3 3 3 3 4 3 3 3 4
1 0 0 1 1 2 3 3 3 4 5 6 5 5 5 4 4 4 5 6 7 6 5 7 7 4 1 2 2 3 3 3 3 2 3 3 2 2 2 3 3 3 3 4
1 1 2 3 3 3 4 5 6 6 6 6 6 5 4 4 5 5 6 7 8 7 6 6 5 3 2 2 2 3 3 3 2 1 1 2 1 2 2 2 2 2 3 3
3 3 3 3 4 3 4 5 5 5 6 6 6 5 5 5 6 6 6 7 8 6 5 5 5 4 2 2 2 2 2 3 3 2 1 1 2 2 2 2 3 3 2 2
4 4 4 4 4 4 5 5 6 6 6 6 6 5 6 6 6 6 6 6 6 5 4 4 3 3 2 2 2 1 1 1 2 1 1 1 1 1 1 1 1 1 1 1
Wind_Direction
256 266 265 247 228 229 236 244 256 257 253 227 185 165 153 151 151 157 157 161 156 152 148 146 143 147 151 146 142 141 145 147 144 141 138 135 130 128 125 121 114 92 72 59
252 257 261 260 247 233 232 235 245 257 261 211 115 137 145 153 161 164 166 169 163 159 157 157 155 159 154 149 144 142 147 144 138 138 134 132 135 134 122 107 85 78 61 60
255 251 254 251 247 247 245 240 241 247 252 211 165 151 155 164 169 168 172 173 168 163 161 160 161 160 155 149 147 148 147 142 140 144 143 140 142 130 120 108 95 86 77 82
253 257 252 254 252 249 251 249 243 241 242 189 144 129 132 151 169 167 173 172 167 163 161 160 162 159 153 150 149 149 146 148 149 151 143 134 128 123 120 112 105 97 92 92
251 249 249 256 260 253 256 250 252 248 238 209 172 148 156 158 151 152 163 155 153 157 157 155 155 151 153 154 154 156 153 151 150 145 137 134 128 118 113 114 110 104 97 95
248 252 251 252 265 273 264 248 280 285 261 225 205 208 158 115 112 121 130 135 139 144 142 146 146 149 154 157 157 155 147 143 140 137 135 132 126 119 116 116 115 107 97 89
240 250 255 281 304 282 255 267 12 14 20 8 182 108 108 111 109 112 116 125 132 135 139 140 141 144 150 148 147 140 134 133 134 131 128 130 124 120 123 123 120 113 106 98
230 243 245 329 312 325 28 27 21 28 39 41 76 92 100 106 111 119 123 127 131 131 129 130 138 145 144 141 135 132 130 131 128 128 133 132 127 129 130 133 133 130 127 118
224 232 113 47 46 28 32 26 17 30 48 65 88 96 103 109 114 118 122 125 130 129 124 126 132 140 144 135 132 134 134 132 125 120 109 118 133 139 143 155 158 149 150 140
270 179 81 63 47 24 18 13 12 21 34 55 93 104 112 115 114 114 118 123 127 131 131 124 120 120 121 126 130 135 134 131 129 129 124 113 110 125 136 139 150 147 144 137
266 288 355 29 25 8 0 25 22 23 24 42 86 98 109 114 114 114 117 124 125 125 127 130 128 123 122 129 137 139 138 138 142 140 134 114 90 52 61 57 56 108 123 127
287 340 346 358 356 350 0 17 22 27 36 44 73 88 100 108 110 111 112 117 121 124 126 130 129 124 122 129 141 145 147 151 154 147 137 136 124 90 55 61 61 61 71 92
311 335 335 341 340 341 355 10 20 36 51 62 69 87 102 109 112 113 111 110 116 119 122 125 127 124 122 127 134 140 143 152 154 148 145 146 143 142 125 81 64 59 67 87
326 320 310 325 334 340 342 358 18 27 47 69 85 104 118 120 119 119 120 122 122 126 128 127 124 118 115 122 132 143 154 153 154 149 150 153 153 152 148 146 128 92 72 91
303 305 298 308 314 312 299 297 306 287 96 86 98 112 124 124 122 119 118 122 119 123 127 126 121 121 125 128 135 148 154 150 149 145 151 150 148 150 147 143 139 133 124 110
287 292 298 296 283 275 270 258 244 240 178 149 139 131 129 129 129 129 130 135 136 134 134 133 132 136 138 139 145 148 140 129 139 146 152 149 152 156 152 149 149 147 149 146
279 279 288 292 288 284 282 263 238 217 201 176 159 148 144 142 141 138 140 140 131 126 133 140 141 145 152 151 156 160 152 146 152 159 157 154 162 162 154 150 152 153 154 152
272 271 274 281 285 278 275 279 259 233 203 175 162 157 161 159 154 148 145 140 138 139 143 144 147 155 160 164 169 160 152 155 163 166 153 149 153 153 149 149 150 149 146 151
277 271 268 268 271 275 268 256 244 244 199 171 162 165 168 162 150 151 154 156 157 156 150 142 153 168 166 163 172 169 158 156 156 149 138 138 143 141 140 145 151 157 156 160
279 275 270 268 266 261 248 231 204 192 174 173 171 175 172 159 153 156 155 158 164 153 147 149 162 162 160 157 193 165 149 152 151 147 149 156 153 149 150 155 162 171 176 171
283 277 263 256 257 257 244 212 193 181 167 174 177 179 168 157 159 158 158 154 135 129 140 148 161 154 151 157 216 179 153 146 147 148 150 150 153 155 157 161 171 184 189 185
306 294 282 275 260 244 233 203 183 171 168 170 167 163 156 157 157 151 148 139 139 137 149 153 147 123 118 163 192 158 140 136 139 143 152 161 166 167 170 177 188 199 198 191
301 304 311 287 152 98 99 123 138 149 147 141 137 140 143 139 140 145 143 132 138 149 151 127 118 113 99 200 168 137 130 129 133 141 151 162 167 167 172 184 195 199 199 201
316 33 122 151 137 112 115 118 112 114 115 115 121 126 130 126 119 116 112 111 115 127 118 117 124 125 208 205 149 136 134 145 152 154 150 149 154 162 175 190 201 207 204 205
64 111 125 132 131 121 116 117 113 109 109 110 114 114 114 113 115 114 116 121 125 124 123 133 150 177 209 146 129 127 122 112 105 99 124 140 168 187 201 207 206 213 218 222
81 87 95 105 112 114 121 119 113 110 109 111 110 106 101 98 105 116 124 132 133 136 138 150 163 181 173 133 105 109 132 155 171 184 188 187 206 213 215 224 226 228 226 222
89 89 89 88 91 101 109 112 110 108 109 115 114 108 104 101 102 109 115 123 134 141 138 144 148 158 153 145 143 149 162 154 146 143 152 173 205 211 210 227 276 276 261 237
Height
1469 1461 1459 1462 1463 1465 1469 1471 1478 1476 1475 1472 1471 1471 1475 1480 1485 1489 1494 1498 1502 1505 1508 1511 1514 1516 1519 1520 1522 1523 1524 1525 1525 1526 1527 1528 1529 1530 1531 1531 1532 1532 1532 1532
1473 1465 1460 1462 1459 1460 1462 1463 1466 1468 1469 1464 1468 1470 1474 1479 1483 1488 1492 1496 1500 1504 1507 1510 1512 1515 1517 1519 1521 1522 1523 1524 1525 1526 1527 1527 1528 1529 1530 1530 1531 1531 1531 1531
1480 1468 1465 1471 1460 1458 1458 1456 1461 1468 1466 1463 1467 1471 1474 1478 1482 1486 1490 1494 1498 1502 1505 1508 1511 1513 1515 1517 1519 1521 1522 1523 1524 1525 1526 1527 1528 1528 1529 1529 1530 1530 1530 1530
1480 1478 1489 1465 1447 1449 1453 1453 1453 1457 1459 1462 1466 1470 1474 1478 1480 1484 1488 1492 1496 1500 1503 1506 1509 1512 1514 1516 1518 1519 1521 1522 1523 1524 1525 1526 1527 1528 1528 1528 1528 1529 1529 1529
1482 1482 1476 1460 1450 1449 1454 1456 1453 1455 1458 1462 1465 1470 1474 1477 1480 1483 1486 1490 1494 1498 1502 1505 1508 1510 1512 1515 1516 1518 1519 1521 1522 1523 1524 1525 1526 1526 1527 1527 1527 1528 1528 1529
1483 1486 1483 1463 1450 1449 1453 1463 1455 1456 1458 1462 1464 1469 1474 1477 1479 1482 1486 1489 1493 1497 1500 1503 1506 1508 1511 1513 1515 1517 1518 1519 1520 1522 1523 1524 1524 1525 1526 1526 1527 1527 1527 1528
1483 1483 1471 1457 1452 1454 1470 1470 1461 1460 1461 1463 1465 1469 1474 1477 1480 1483 1486 1489 1493 1496 1499 1502 1505 1507 1510 1512 1513 1515 1516 1518 1519 1520 1521 1522 1523 1524 1525 1525 1526 1526 1526 1527
1479 1483 1478 1462 1458 1464 1469 1466 1465 1464 1466 1468 1468 1472 1475 1478 1481 1484 1487 1490 1493 1495 1498 1501 1503 1506 1508 1510 1512 1513 1515 1516 1517 1519 1520 1521 1522 1522 1523 1524 1525 1525 1526 1526
1466 1469 1467 1466 1468 1470 1469 1470 1469 1469 1470 1470 1471 1474 1477 1480 1483 1486 1488 1491 1493 1495 1498 1500 1503 1505 1507 1509 1511 1512 1513 1515 1516 1517 1518 1519 1520 1521 1522 1523 1524 1524 1525 1525
1463 1464 1465 1467 1469 1470 1471 1472 1472 1472 1471 1472 1474 1477 1479 1482 1484 1487 1489 1491 1493 1495 1497 1499 1502 1504 1506 1508 1509 1511 1512 1513 1514 1516 1517 1518 1519 1520 1521 1522 1523 1524 1524 1524
1466 1466 1467 1470 1471 1472 1472 1472 1472 1473 1474 1475 1476 1478 1481 1483 1485 1487 1489 1492 1493 1495 1497 1499 1501 1503 1504 1506 1508 1509 1510 1512 1513 1514 1516 1517 1518 1519 1520 1521 1522 1523 1523 1523
1471 1471 1472 1473 1473 1474 1474 1474 1474 1475 1476 1477 1478 1480 1482 1484 1486 1488 1490 1491 1493 1495 1497 1499 1500 1502 1503 1505 1506 1507 1508 1510 1512 1513 1514 1515 1516 1517 1518 1519 1520 1521 1522 1522
1471 1472 1473 1474 1474 1475 1475 1476 1476 1477 1478 1479 1480 1481 1483 1484 1486 1488 1490 1491 1493 1494 1496 1498 1499 1500 1501 1503 1504 1505 1506 1508 1510 1511 1512 1513 1514 1515 1516 1518 1518 1519 1520 1520
1473 1473 1474 1474 1475 1475 1476 1476 1477 1478 1478 1480 1481 1482 1484 1485 1486 1488 1490 1491 1493 1494 1495 1496 1498 1499 1500 1501 1502 1504 1505 1507 1508 1509 1511 1512 1513 1514 1515 1515 1516 1517 1518 1519
1474 1474 1475 1475 1475 1476 1477 1477 1478 1479 1479 1480 1482 1483 1484 1485 1486 1487 1489 1490 1492 1493 1494 1495 1496 1498 1499 1500 1501 1503 1504 1506 1507 1508 1509 1510 1511 1512 1513 1514 1515 1516 1517 1518
1473 1474 1474 1474 1474 1475 1476 1476 1477 1478 1479 1480 1482 1483 1483 1484 1486 1487 1489 1490 1491 1492 1493 1494 1495 1496 1497 1499 1500 1502 1503 1504 1506 1507 1508 1509 1510 1511 1512 1513 1514 1515 1515 1517
1473 1473 1473 1474 1474 1474 1474 1474 1475 1476 1478 1479 1481 1482 1483 1484 1485 1486 1488 1489 1490 1491 1492 1493 1494 1495 1496 1498 1499 1501 1502 1503 1505 1506 1507 1508 1509 1510 1511 1512 1513 1514 1514 1515
1471 1471 1472 1472 1472 1472 1472 1472 1472 1474 1475 1477 1479 1480 1482 1483 1484 1485 1487 1488 1489 1490 1491 1492 1493 1494 1495 1497 1498 1500 1501 1502 1504 1505 1506 1507 1508 1509 1510 1511 1512 1513 1514 1515
1468 1468 1469 1469 1470 1470 1470 1470 1471 1472 1473 1474 1476 1478 1479 1480 1482 1484 1486 1487 1488 1489 1490 1491 1492 1493 1495 1496 1498 1499 1500 1501 1503 1504 1505 1506 1507 1508 1509 1510 1511 1512 1513 1513
1465 1465 1465 1466 1466 1467 1468 1468 1469 1470 1471 1473 1475 1477 1478 1479 1481 1483 1484 1486 1487 1488 1489 1490 1491 1492 1494 1496 1497 1499 1500 1501 1502 1503 1504 1505 1506 1507 1508 1509 1510 1511 1512 1513
1463 1462 1463 1463 1463 1464 1465 1465 1467 1468 1470 1472 1474 1475 1477 1478 1480 1481 1483 1484 1485 1486 1488 1489 1490 1492 1493 1495 1496 1498 1500 1501 1502 1502 1503 1504 1505 1506 1507 1508 1509 1510 1511 1512
1460 1460 1460 1461 1461 1462 1463 1464 1465 1466 1468 1470 1472 1474 1476 1477 1479 1480 1482 1484 1484 1486 1487 1488 1490 1491 1493 1494 1496 1498 1499 1500 1501 1502 1503 1504 1505 1505 1506 1507 1508 1509 1510 1511
1459 1459 1459 1460 1460 1460 1461 1462 1464 1465 1467 1468 1471 1473 1475 1476 1478 1480 1481 1483 1484 1486 1487 1488 1489 1491 1492 1494 1496 1497 1498 1499 1500 1501 1502 1503 1504 1505 1506 1507 1507 1508 1509 1510
1458 1458 1458 1459 1459 1460 1461 1462 1464 1465 1467 1469 1471 1473 1475 1476 1478 1479 1480 1482 1484 1485 1487 1488 1489 1491 1492 1494 1496 1497 1498 1499 1500 1501 1502 1503 1504 1504 1505 1506 1507 1507 1508 1508
1457 1458 1458 1459 1460 1461 1462 1464 1465 1467 1469 1470 1472 1474 1475 1476 1478 1479 1480 1482 1484 1485 1487 1488 1490 1491 1493 1495 1496 1497 1498 1499 1500 1501 1502 1502 1503 1504 1504 1505 1506 1506 1507 1507
1458 1458 1459 1460 1461 1463 1464 1465 1467 1469 1470 1472 1474 1475 1476 1478 1479 1480 1482 1483 1485 1486 1488 1489 1491 1492 1494 1495 1496 1497 1498 1499 1500 1500 1501 1502 1503 1503 1504 1504 1505 1505 1505 1505
1460 1461 1461 1462 1463 1465 1466 1467 1469 1471 1472 1474 1475 1477 1478 1480 1481 1482 1483 1485 1486 1488 1489 1491 1492 1493 1495 1496 1497 1498 1499 1499 1500 1501 1501 1502 1502 1503 1503 1503 1503 1504 1504 1503